Temperature
22 22 22 23 27 29 28 28 28 28 29 28 27 27 28 27 27 25 20 20 20 19 19 20 19 19 19 19 19 19 19 19 19 19 19 19 19 19 19 19 19 19 19 19 19 19 19 19 19
22 23 23 26 29 28 27 28 28 28 28 27 27 27 27 26 23 21 19 19 19 19 19 19 20 19 19 19 19 19 19 19 19 19 19 19 19 19 19 19 19 19 18 18 18 18 18 18 18
23 23 25 29 28 28 28 28 29 28 27 27 27 26 26 25 22 21 20 19 19 19 19 19 20 19 19 19 19 19 19 19 19 19 19 19 19 19 19 19 19 18 18 18 18 18 18 18 18
22 24 27 29 28 28 28 29 28 28 27 27 27 26 25 22 22 21 20 20 19 19 18 19 20 19 19 19 19 19 19 19 19 19 19 19 19 19 19 18 18 18 18 18 18 18 18 18 18
23 26 28 28 28 28 29 29 28 29 28 27 27 27 24 22 21 20 20 20 19 19 18 19 19 19 19 19 19 19 19 18 18 18 19 18 18 18 18 18 18 18 18 18 18 18 18 18 18
25 28 28 28 28 28 29 28 28 29 28 27 27 26 24 21 21 20 20 20 20 19 18 18 19 19 19 19 19 19 18 18 18 18 18 18 18 18 18 18 18 18 18 18 18 18 18 18 18
26 28 28 28 27 28 28 28 29 29 28 28 27 27 24 22 20 20 20 19 19 19 19 18 18 19 19 19 19 19 18 18 18 18 18 18 18 18 18 18 18 18 17 18 18 18 18 18 18
24 28 28 28 27 28 28 28 28 28 28 26 26 27 25 22 20 20 20 19 19 19 19 18 18 18 18 18 19 18 18 18 18 18 18 18 18 18 18 18 18 18 17 18 18 18 18 18 18
24 28 28 28 27 28 27 28 27 27 27 26 26 26 25 22 21 20 19 19 19 19 19 19 19 18 18 18 18 18 18 18 18 18 18 18 17 17 17 17 18 18 17 18 18 18 18 18 18
26 27 27 27 27 27 27 27 27 28 28 27 26 24 23 22 21 21 20 20 20 19 19 19 19 18 18 18 18 18 18 18 18 17 17 17 17 17 17 17 18 18 18 18 18 18 18 18 17
26 27 26 26 25 26 26 27 27 28 28 28 27 25 23 22 22 22 21 21 21 20 19 19 19 19 18 18 18 18 18 18 17 17 17 17 17 17 17 17 17 17 17 17 17 17 17 18 17
26 26 26 26 25 25 26 26 27 27 27 26 26 25 24 23 23 22 22 22 21 20 20 19 19 19 18 18 18 18 18 18 18 17 17 17 17 17 17 17 17 16 16 16 17 17 17 17 18
26 26 25 25 24 25 25 26 26 26 25 25 25 25 24 24 24 23 23 22 22 20 20 19 19 19 19 18 18 18 18 18 18 17 17 17 17 17 17 17 17 17 17 16 16 17 17 17 17
25 25 25 25 25 25 25 26 26 25 24 25 25 25 25 25 24 24 23 23 22 21 21 20 19 19 19 18 18 18 18 18 18 17 17 17 17 17 17 17 17 17 17 17 17 17 17 17 17
25 26 26 26 26 25 26 26 26 24 24 24 24 24 24 24 24 24 24 23 23 22 21 20 19 19 19 19 18 18 18 18 18 17 18 18 17 17 17 17 17 17 17 17 17 17 17 17 17
26 26 26 26 26 25 26 26 25 23 24 24 23 23 23 23 23 23 23 23 23 22 22 21 20 19 19 19 18 18 18 18 18 18 17 18 18 17 17 17 17 17 17 17 17 17 17 17 17
26 26 26 26 26 26 26 25 24 22 23 23 22 22 22 22 22 22 22 22 22 22 21 21 20 20 19 19 18 18 18 18 18 18 18 17 18 17 17 17 17 17 17 17 17 17 17 17 17
25 25 25 25 25 25 25 25 24 22 22 22 21 22 21 21 21 20 20 21 21 21 21 21 21 20 20 19 19 18 18 18 18 18 18 17 17 17 17 17 17 17 17 16 16 16 16 17 16
25 24 25 25 25 24 25 25 24 22 21 21 21 21 21 20 20 19 19 20 21 21 21 21 21 20 20 20 19 19 19 18 18 18 18 18 17 17 17 17 17 17 17 16 16 16 16 16 16
24 24 24 24 24 24 24 24 23 21 21 20 20 20 20 19 19 19 19 19 20 21 21 21 21 21 20 20 20 20 19 19 19 19 18 18 18 18 17 17 17 17 17 16 16 16 16 16 16
24 23 23 23 23 24 24 24 23 22 21 20 19 19 19 18 18 18 18 19 19 20 21 21 21 21 21 20 20 20 19 19 18 18 18 18 18 18 18 17 17 17 17 16 16 16 16 16 16
23 22 21 22 22 23 23 23 24 22 21 20 19 19 18 17 17 17 17 17 18 19 20 20 20 20 20 20 19 19 19 18 18 18 18 18 18 18 18 17 17 17 17 17 16 16 16 16 16
21 21 21 21 22 22 23 22 24 21 20 20 19 18 17 17 16 16 16 16 17 18 19 19 19 19 19 19 19 19 18 18 17 17 17 17 18 18 18 17 17 17 17 17 16 16 16 16 16
21 21 22 22 22 21 22 22 22 19 18 18 18 18 17 16 16 16 16 16 16 17 17 18 18 18 18 18 18 17 17 17 17 17 17 17 17 17 17 17 17 17 16 16 16 16 16 16 16
20 20 20 20 20 20 22 21 18 16 17 17 17 17 16 16 16 15 15 15 15 16 16 17 17 17 17 17 16 16 16 16 16 16 16 17 17 17 17 17 16 16 16 16 16 16 16 16 16
19 19 18 17 18 19 20 18 15 16 16 16 16 16 15 15 15 14 14 14 14 15 15 15 16 15 15 15 15 15 15 16 15 16 16 16 16 16 16 16 16 16 16 16 16 16 16 15 15
18 18 18 17 18 18 19 17 15 16 16 15 15 15 14 14 14 14 14 13 13 14 14 14 15 14 15 15 15 15 15 15 15 15 15 16 16 16 16 16 16 16 16 16 15 15 15 15 15
17 17 17 16 16 16 17 16 13 13 13 14 14 13 13 13 13 13 13 13 13 13 13 14 14 14 14 14 14 14 15 15 15 15 16 16 16 16 16 16 16 15 16 16 15 15 15 15 15
16 15 15 16 15 15 14 13 12 11 12 12 12 12 12 13 12 12 13 13 13 13 13 14 14 14 14 14 14 14 15 15 15 15 16 16 16 16 15 15 15 15 15 15 15 15 15 15 15
15 14 14 14 14 14 13 12 11 11 11 11 11 11 12 12 12 12 12 13 13 13 13 13 14 14 14 14 15 15 15 15 15 15 16 16 16 15 15 15 15 15 15 15 15 15 15 15 14
Wind_Speed
4 2 3 3 2 6 10 7 5 4 4 5 4 3 3 4 3 3 6 13 15 17 17 17 16 15 15 14 14 13 13 12 12 12 11 11 10 9 8 8 8 8 7 7 6 7 7 7 6
3 1 3 3 3 8 9 5 5 4 5 5 4 3 3 4 5 6 9 13 16 16 16 16 16 15 15 14 14 13 13 13 12 12 11 11 10 9 8 8 8 8 7 7 7 7 7 6 6
2 3 2 1 5 7 7 4 4 5 4 1 2 3 3 4 5 6 10 15 16 15 15 16 16 15 14 14 13 13 13 13 13 12 11 10 9 9 8 8 8 8 8 8 7 7 7 6 5
2 2 2 3 7 5 3 2 2 5 3 1 1 4 4 4 4 8 14 15 16 15 14 16 15 14 14 13 13 13 13 13 13 13 11 10 9 8 8 8 8 8 8 9 8 8 7 6 5
2 2 2 5 5 4 2 1 3 3 1 1 1 3 5 4 6 12 14 14 15 15 14 16 15 14 13 13 13 13 13 13 13 12 12 10 9 8 7 7 7 7 8 9 9 9 8 8 7
2 2 3 4 5 3 2 1 3 2 1 1 1 2 4 6 8 12 13 12 13 14 14 15 16 14 13 13 13 13 13 13 13 12 12 10 9 8 7 7 7 7 8 8 8 8 8 8 8
2 1 2 4 4 4 3 1 2 1 1 1 0 2 5 8 9 12 12 11 12 13 13 13 16 15 14 13 13 13 13 13 13 12 11 10 9 8 7 7 6 6 7 7 7 7 7 7 7
2 2 4 4 4 3 2 1 0 1 1 2 1 1 3 10 12 12 11 11 11 12 13 12 13 14 14 15 14 14 14 13 13 13 12 11 10 9 7 8 7 6 6 6 6 6 5 6 6
3 4 4 3 3 3 2 1 2 1 2 3 1 2 4 14 15 13 11 11 11 11 12 12 12 12 12 12 14 14 13 13 13 13 12 12 10 10 9 7 7 6 6 6 5 5 5 4 7
2 3 0 1 1 1 1 1 1 3 3 3 4 4 9 15 15 15 14 14 13 13 13 11 11 11 11 10 12 12 13 13 13 12 13 11 8 6 5 11 6 6 7 7 5 5 6 8 6
1 1 2 2 2 2 2 1 0 3 2 1 2 7 13 15 15 15 14 13 13 13 12 11 11 11 10 9 9 8 9 10 11 10 11 8 7 7 6 8 9 8 8 7 7 8 5 4 3
1 1 1 1 2 2 2 2 2 2 3 6 5 6 14 17 16 15 14 13 12 12 12 12 12 11 11 10 8 8 7 7 8 9 11 8 6 6 6 5 6 7 6 4 4 3 4 4 4
2 1 1 2 3 3 3 3 3 2 6 7 5 7 14 16 15 14 13 12 12 12 12 12 13 12 11 9 7 8 8 7 9 8 9 9 7 6 6 6 6 6 6 6 4 4 4 3 2
2 3 4 3 3 2 3 3 2 3 8 6 3 5 11 13 13 13 13 12 13 12 12 12 13 12 11 10 9 8 8 8 8 8 9 10 8 7 6 6 6 6 6 5 5 4 3 3 2
3 5 4 2 2 1 4 3 2 6 7 6 4 2 4 8 10 12 12 12 12 12 12 13 12 13 13 12 11 8 8 9 8 8 10 10 9 8 7 6 7 7 8 7 5 4 3 3 3
4 6 6 2 1 1 5 4 6 7 7 6 6 4 3 5 8 10 10 11 11 12 12 12 11 13 13 11 10 8 8 9 8 9 9 11 11 10 7 6 6 7 8 7 5 4 4 4 4
5 6 6 3 1 2 4 3 5 7 6 6 6 6 5 4 5 7 9 11 12 12 13 14 14 14 13 13 10 9 9 8 8 9 9 10 11 11 9 6 6 8 7 7 6 6 5 5 4
5 7 6 6 1 4 6 5 3 6 7 7 7 7 7 7 7 8 9 10 12 13 15 15 15 15 14 12 10 9 9 8 8 8 9 11 11 11 9 6 8 8 7 7 7 7 5 4 5
6 8 9 7 4 6 8 7 1 4 6 7 8 9 10 10 10 9 9 9 12 14 16 16 16 16 13 11 11 10 9 9 8 8 10 11 12 12 10 7 8 8 8 9 10 8 8 7 6
6 8 9 7 4 7 9 9 2 3 6 8 9 10 12 13 13 12 11 9 10 13 16 18 18 17 15 12 10 9 8 7 7 6 8 11 12 12 10 10 8 9 8 10 10 9 7 6 7
6 6 9 11 10 9 11 12 8 4 3 6 9 11 12 14 15 15 15 13 11 11 14 15 16 16 15 13 8 6 5 4 4 5 6 8 11 11 11 11 10 10 10 9 10 11 10 8 8
7 8 11 12 13 12 9 13 8 4 2 6 11 13 14 15 15 15 16 15 12 11 10 12 12 13 13 13 10 9 5 4 2 2 3 6 8 10 11 11 10 10 9 10 10 11 10 10 9
8 12 13 13 14 16 14 13 8 3 2 8 13 14 15 15 15 15 15 15 13 10 6 5 7 9 10 12 12 9 5 2 1 0 2 4 5 8 9 9 9 9 8 9 9 9 11 10 10
11 13 12 11 11 14 13 13 6 4 8 12 14 15 16 15 15 14 14 12 11 9 4 2 5 7 9 11 11 9 8 5 3 1 2 3 3 5 7 7 8 8 7 8 8 9 11 10 11
12 12 7 7 7 9 6 7 3 8 10 12 15 16 15 15 15 14 13 11 10 9 7 7 9 10 9 10 10 8 8 7 4 2 2 3 4 5 6 6 7 6 7 7 7 8 9 10 11
9 9 6 7 8 9 5 2 5 9 11 13 14 15 15 15 14 12 11 9 8 9 9 9 10 11 10 10 8 8 7 4 2 1 2 4 4 4 5 6 5 5 5 5 6 6 7 8 10
8 7 6 7 10 9 4 2 3 13 17 18 17 17 16 15 13 11 8 8 7 8 9 9 10 11 11 9 8 6 6 4 2 2 4 4 3 3 4 5 5 5 5 5 5 5 6 7 8
8 7 6 4 5 5 4 2 7 16 19 19 19 18 17 14 11 9 7 7 7 8 8 8 9 10 9 7 6 4 3 2 2 3 5 4 5 5 5 5 4 5 5 4 4 4 5 6 7
10 7 5 4 4 4 3 3 8 14 16 17 17 17 15 12 10 9 8 7 7 7 7 8 7 7 6 6 4 3 1 0 2 3 3 4 5 5 5 4 4 4 4 4 4 4 5 6 7
7 7 6 4 4 4 3 3 9 13 13 15 16 16 14 12 11 10 10 9 9 8 7 7 6 6 5 3 2 1 1 2 4 3 4 4 5 4 4 4 4 3 3 3 3 3 4 5 6
Wind_Direction
239 225 223 237 198 93 82 83 89 95 80 77 72 56 35 24 346 46 119 152 148 149 147 150 150 149 149 149 147 145 142 139 136 133 130 126 122 118 113 106 100 97 95 98 104 109 109 111 117
304 249 249 250 112 96 87 86 89 77 103 111 96 70 59 67 52 100 136 150 153 151 152 152 150 150 150 151 152 150 147 144 141 138 135 132 129 124 118 110 102 96 92 90 95 101 105 106 111
270 257 283 111 86 79 87 80 87 111 122 139 88 55 41 63 100 123 140 152 156 154 154 146 152 153 153 154 155 154 152 150 148 144 141 138 135 130 124 116 107 98 91 86 87 94 99 103 110
267 250 238 117 97 79 65 75 133 149 151 110 90 92 84 72 110 126 141 154 157 158 157 151 157 156 157 158 158 158 157 155 154 151 147 144 142 137 130 124 114 104 93 85 83 85 88 90 95
266 267 150 122 103 91 64 3 187 184 97 88 36 77 102 101 114 134 148 156 161 163 161 157 161 161 162 162 162 162 161 161 160 156 152 149 146 141 135 129 119 109 98 88 82 81 79 79 81
266 256 168 133 117 115 95 134 191 212 98 142 140 91 101 126 144 149 153 161 165 165 165 161 163 167 167 167 167 167 166 165 164 162 158 154 150 145 139 132 123 113 102 92 85 82 78 77 80
290 250 169 146 146 135 85 74 194 207 213 146 143 87 125 146 151 155 157 162 165 168 169 170 170 174 174 173 172 171 171 171 169 166 163 158 152 148 146 140 132 121 111 102 92 86 81 78 82
313 237 180 177 175 136 81 136 136 258 98 113 199 8 144 157 156 159 159 163 169 174 176 178 179 178 178 177 178 177 176 175 173 169 166 161 156 155 154 162 141 136 125 114 104 99 95 89 89
283 241 214 192 194 129 75 145 117 167 154 163 176 29 106 147 159 163 165 171 176 182 184 184 183 183 183 177 172 180 180 179 177 174 169 176 180 169 172 139 137 146 135 124 118 114 118 132 124
271 250 67 51 1 47 36 33 139 194 201 190 169 135 142 157 170 176 180 181 182 186 189 190 190 184 186 182 177 185 183 181 189 183 177 189 180 170 154 123 156 152 143 140 129 143 176 212 160
284 314 28 56 17 340 333 5 295 262 246 284 242 179 169 176 183 188 191 190 188 189 189 195 195 192 189 186 187 186 184 183 191 186 180 188 176 172 175 164 167 169 176 167 153 192 174 172 141
274 25 349 11 14 330 321 313 291 278 325 333 301 211 184 189 193 195 195 193 190 193 194 196 199 195 196 193 191 191 187 187 187 191 188 185 188 190 177 187 174 173 177 168 185 176 157 164 167
249 284 351 325 309 298 288 276 281 312 339 322 294 206 196 199 199 199 199 194 195 195 198 199 200 202 197 197 197 199 197 193 192 190 196 191 190 193 179 186 182 193 177 175 185 194 162 174 146
330 302 297 298 295 287 292 282 252 15 352 349 328 214 207 208 207 202 202 202 201 200 200 197 201 202 202 197 200 202 199 195 201 192 203 197 194 197 187 194 188 192 188 185 192 190 187 199 179
280 276 262 250 269 270 288 238 64 15 355 5 356 295 235 223 219 220 214 214 212 207 205 199 202 203 204 205 203 201 203 198 201 199 207 202 199 199 198 198 192 192 191 192 199 185 206 200 183
258 255 252 203 270 266 270 251 63 14 8 19 12 2 309 256 244 237 235 232 227 220 216 205 201 207 204 205 204 202 203 202 203 201 208 209 205 205 201 201 201 197 194 198 195 208 202 192 195
240 259 266 250 232 282 270 269 55 23 22 25 16 3 346 316 286 271 260 250 243 235 226 217 209 208 205 203 206 207 203 202 206 205 206 212 214 212 205 206 205 197 202 206 207 208 210 202 195
282 278 272 271 298 286 269 268 40 36 37 31 20 9 360 346 334 318 298 278 255 241 233 225 215 212 204 201 205 203 209 206 208 209 209 215 219 222 219 210 213 205 207 213 218 212 216 214 204
294 282 280 287 308 287 272 271 303 53 44 32 20 11 2 354 344 335 317 292 268 247 237 230 220 212 204 196 199 199 205 206 207 211 214 214 221 226 227 224 219 215 218 220 222 217 211 211 209
291 287 290 292 306 287 275 270 195 98 60 35 18 8 2 353 348 346 334 313 283 258 242 234 223 213 204 197 194 197 200 206 208 210 216 220 224 226 230 230 225 221 224 227 223 214 215 210 209
308 317 313 304 301 267 271 260 209 167 95 38 20 8 1 354 346 344 339 329 307 276 253 239 226 212 201 187 178 171 171 175 187 205 216 223 227 229 232 237 233 230 227 226 223 216 215 211 213
311 343 313 298 285 272 259 272 231 185 178 21 9 3 357 353 347 343 340 335 322 299 272 249 226 209 193 177 170 169 174 185 206 219 226 228 228 231 233 236 235 233 231 230 224 219 220 216 211
333 319 300 288 278 273 256 259 244 135 355 1 360 356 353 350 347 343 342 339 333 321 296 255 214 195 178 168 162 157 150 151 95 61 246 239 232 234 233 233 232 234 232 232 227 219 220 221 219
329 309 286 264 265 261 259 254 248 51 2 349 349 350 349 347 346 346 348 349 350 352 1 71 130 138 143 145 145 146 140 136 133 191 244 236 226 232 229 226 226 228 229 231 228 224 223 227 229
346 332 304 274 252 265 289 261 66 39 8 352 344 344 345 346 347 349 352 359 8 18 40 73 99 106 115 121 122 129 131 134 153 192 224 232 219 215 211 213 218 220 225 227 225 226 227 227 231
346 341 323 299 295 303 298 262 81 23 3 354 350 348 347 348 348 350 357 6 21 34 50 69 87 93 96 105 110 108 108 114 131 201 227 227 221 212 200 199 203 206 213 216 217 228 229 232 232
345 351 331 294 288 282 271 94 63 3 358 354 352 350 347 344 347 351 6 23 39 52 61 74 86 88 89 92 95 98 101 107 147 196 222 208 191 185 185 181 179 181 191 204 205 219 223 230 235
8 338 316 303 304 290 298 8 2 352 347 346 349 347 343 344 353 1 18 31 45 55 60 68 81 87 84 84 88 87 93 122 167 204 210 192 178 172 172 173 169 168 173 188 197 214 222 229 233
8 3 336 300 288 302 311 34 7 344 341 342 343 344 344 353 5 13 20 33 46 48 47 52 63 70 71 73 70 65 46 58 238 226 203 184 175 173 171 168 174 173 177 182 188 212 213 227 234
23 0 339 332 334 325 313 4 357 345 348 351 350 351 354 9 20 24 24 31 34 38 37 33 31 39 36 50 63 69 232 225 227 212 192 181 176 179 180 169 181 174 183 192 200 207 214 226 237
Height
1510 1509 1508 1509 1507 1506 1513 1511 1507 1508 1507 1510 1510 1509 1509 1510 1513 1520 1522 1522 1525 1527 1529 1531 1533 1535 1537 1538 1540 1541 1543 1544 1545 1546 1547 1547 1548 1549 1550 1550 1551 1551 1551 1551 1551 1552 1552 1553 1553
1511 1509 1510 1509 1505 1515 1518 1510 1508 1508 1510 1512 1512 1512 1511 1514 1518 1520 1520 1522 1526 1528 1530 1532 1534 1536 1538 1539 1541 1542 1543 1544 1546 1547 1548 1548 1549 1550 1551 1551 1551 1552 1552 1552 1552 1552 1553 1553 1554
1510 1510 1512 1506 1508 1514 1516 1509 1508 1510 1513 1512 1513 1514 1514 1517 1520 1521 1521 1523 1527 1529 1532 1532 1534 1536 1538 1540 1541 1543 1544 1545 1546 1548 1549 1549 1550 1551 1551 1552 1552 1552 1552 1552 1553 1553 1553 1554 1555
1512 1513 1511 1507 1513 1511 1510 1509 1510 1512 1513 1514 1513 1514 1517 1520 1521 1522 1522 1525 1528 1530 1532 1533 1535 1537 1539 1540 1542 1543 1545 1546 1547 1548 1549 1550 1551 1551 1552 1552 1552 1553 1553 1553 1553 1554 1554 1555 1555
1513 1512 1509 1512 1512 1510 1509 1510 1511 1511 1511 1513 1513 1514 1518 1521 1521 1522 1523 1526 1529 1531 1533 1533 1535 1537 1539 1540 1542 1543 1545 1547 1548 1549 1550 1551 1551 1552 1552 1553 1553 1553 1553 1554 1554 1554 1555 1555 1556
1515 1510 1511 1515 1514 1510 1509 1511 1511 1511 1512 1514 1515 1515 1519 1521 1522 1523 1525 1527 1529 1531 1533 1534 1535 1537 1539 1541 1542 1544 1545 1547 1548 1549 1550 1551 1552 1552 1553 1553 1553 1553 1554 1554 1555 1555 1556 1556 1557
1515 1510 1511 1513 1514 1511 1511 1511 1510 1510 1512 1514 1515 1515 1519 1522 1522 1524 1526 1527 1530 1531 1533 1535 1535 1537 1538 1540 1542 1543 1545 1547 1548 1549 1550 1551 1552 1552 1553 1553 1553 1553 1554 1554 1555 1556 1557 1557 1558
1515 1512 1512 1512 1514 1512 1512 1512 1512 1512 1513 1516 1516 1515 1518 1521 1522 1524 1526 1527 1529 1531 1533 1535 1536 1538 1539 1540 1541 1543 1545 1546 1548 1549 1550 1551 1552 1552 1553 1553 1553 1554 1554 1555 1555 1556 1557 1558 1559
1516 1513 1513 1513 1513 1512 1513 1512 1513 1514 1514 1516 1516 1517 1518 1520 1521 1524 1525 1527 1529 1531 1533 1535 1537 1538 1540 1541 1541 1542 1544 1545 1547 1548 1549 1550 1552 1553 1554 1554 1553 1554 1554 1555 1556 1557 1558 1558 1559
1516 1513 1512 1513 1513 1513 1514 1513 1513 1513 1513 1514 1516 1518 1518 1519 1521 1523 1524 1526 1528 1530 1532 1534 1536 1537 1539 1540 1541 1542 1543 1544 1546 1548 1549 1551 1553 1554 1555 1553 1553 1554 1554 1555 1556 1557 1558 1559 1561
1515 1514 1514 1515 1515 1515 1514 1513 1513 1512 1511 1513 1515 1517 1518 1519 1520 1522 1524 1525 1527 1529 1531 1533 1535 1537 1538 1539 1540 1541 1543 1544 1546 1548 1549 1551 1552 1553 1554 1554 1554 1555 1555 1558 1556 1558 1560 1561 1561
1515 1515 1516 1515 1516 1516 1515 1514 1513 1513 1514 1514 1514 1515 1516 1517 1519 1520 1522 1524 1526 1528 1530 1531 1533 1536 1537 1539 1540 1541 1542 1543 1546 1547 1549 1550 1551 1553 1554 1554 1556 1556 1557 1557 1559 1560 1560 1561 1562
1514 1515 1516 1516 1516 1515 1515 1514 1514 1514 1514 1513 1513 1513 1514 1516 1518 1520 1522 1524 1525 1527 1528 1530 1532 1534 1536 1537 1538 1540 1541 1543 1545 1546 1548 1549 1550 1552 1552 1554 1554 1556 1557 1557 1558 1560 1561 1561 1561
1516 1516 1515 1515 1515 1514 1514 1513 1513 1514 1514 1513 1512 1513 1514 1516 1518 1520 1521 1523 1525 1526 1528 1529 1530 1532 1534 1536 1537 1539 1541 1541 1544 1545 1546 1548 1549 1550 1551 1553 1553 1555 1556 1557 1558 1559 1560 1561 1561
1516 1514 1513 1513 1513 1513 1513 1511 1513 1515 1514 1513 1513 1513 1514 1515 1517 1519 1520 1522 1524 1525 1527 1528 1529 1531 1533 1535 1536 1538 1539 1541 1542 1543 1545 1547 1548 1549 1550 1552 1553 1554 1555 1557 1558 1559 1559 1560 1560
1513 1512 1513 1511 1512 1512 1514 1512 1515 1516 1514 1514 1513 1513 1514 1515 1516 1517 1519 1520 1522 1524 1525 1527 1527 1529 1531 1533 1534 1536 1537 1539 1540 1541 1543 1545 1547 1548 1548 1549 1551 1552 1554 1555 1556 1557 1558 1559 1560
1513 1513 1513 1511 1511 1511 1511 1511 1515 1516 1515 1514 1514 1514 1514 1514 1514 1515 1516 1518 1519 1520 1522 1524 1525 1527 1529 1530 1532 1534 1535 1536 1537 1539 1540 1542 1544 1546 1547 1547 1549 1550 1552 1553 1555 1556 1557 1558 1558
1517 1514 1513 1513 1510 1511 1511 1511 1514 1516 1516 1515 1515 1514 1513 1513 1513 1513 1512 1513 1514 1515 1518 1520 1521 1523 1526 1527 1529 1531 1532 1533 1534 1536 1537 1539 1541 1543 1544 1545 1546 1548 1549 1551 1553 1554 1555 1556 1557
1516 1516 1515 1512 1511 1513 1510 1510 1512 1516 1516 1515 1515 1514 1513 1512 1512 1510 1508 1508 1509 1510 1512 1514 1517 1518 1521 1522 1524 1526 1528 1530 1531 1533 1534 1536 1537 1539 1541 1542 1544 1545 1546 1548 1550 1551 1552 1553 1555
1517 1518 1516 1512 1513 1513 1510 1508 1511 1515 1516 1517 1516 1514 1513 1511 1509 1507 1505 1504 1503 1504 1506 1508 1510 1513 1515 1517 1520 1522 1525 1527 1529 1530 1532 1533 1535 1536 1538 1539 1540 1542 1543 1544 1545 1546 1548 1549 1551
1519 1522 1521 1520 1514 1511 1511 1508 1508 1512 1515 1517 1516 1515 1513 1511 1508 1505 1502 1500 1498 1497 1498 1501 1503 1506 1508 1511 1514 1517 1521 1524 1525 1527 1529 1531 1532 1533 1534 1536 1537 1538 1539 1540 1541 1542 1544 1545 1547
1522 1524 1523 1520 1517 1510 1509 1511 1501 1508 1512 1514 1515 1514 1512 1510 1507 1503 1500 1496 1494 1492 1492 1494 1496 1498 1502 1504 1507 1511 1515 1519 1522 1524 1526 1527 1529 1530 1531 1532 1533 1534 1535 1536 1537 1538 1539 1541 1542
1527 1525 1521 1518 1514 1512 1506 1510 1500 1507 1512 1514 1516 1514 1512 1510 1506 1502 1498 1494 1490 1487 1487 1487 1489 1492 1495 1498 1501 1505 1509 1514 1518 1521 1523 1524 1525 1526 1528 1528 1529 1530 1531 1532 1533 1534 1535 1536 1537
1528 1522 1515 1512 1511 1515 1505 1507 1507 1515 1521 1518 1517 1515 1512 1509 1506 1502 1498 1493 1489 1486 1484 1483 1485 1487 1491 1494 1496 1500 1504 1508 1513 1516 1520 1522 1523 1523 1524 1525 1526 1527 1528 1529 1530 1530 1531 1532 1533
1529 1527 1523 1520 1517 1514 1504 1508 1521 1525 1524 1523 1519 1516 1512 1509 1505 1501 1497 1493 1489 1486 1484 1483 1483 1485 1488 1491 1494 1498 1500 1505 1510 1514 1517 1520 1521 1522 1522 1523 1524 1525 1525 1526 1526 1527 1528 1528 1529
1534 1533 1538 1539 1529 1520 1513 1519 1531 1529 1527 1524 1521 1517 1513 1509 1505 1501 1498 1494 1491 1488 1486 1485 1485 1486 1488 1491 1493 1496 1500 1504 1508 1512 1516 1519 1521 1521 1521 1522 1522 1523 1523 1523 1524 1525 1525 1525 1526
1539 1537 1538 1539 1531 1529 1519 1525 1530 1528 1526 1524 1521 1517 1513 1509 1505 1501 1499 1496 1493 1491 1489 1488 1488 1488 1490 1492 1495 1498 1501 1505 1509 1512 1515 1518 1519 1519 1520 1521 1521 1521 1521 1521 1522 1522 1522 1523 1523
1545 1544 1540 1540 1542 1537 1529 1532 1541 1536 1532 1527 1523 1519 1514 1509 1505 1502 1499 1497 1495 1493 1493 1492 1492 1493 1494 1495 1498 1501 1503 1506 1509 1513 1515 1517 1517 1519 1519 1520 1520 1520 1520 1520 1520 1520 1520 1520 1520
1550 1550 1547 1542 1542 1547 1544 1548 1549 1546 1540 1534 1527 1522 1515 1510 1506 1503 1501 1499 1497 1496 1496 1496 1497 1497 1498 1500 1502 1504 1505 1507 1510 1513 1514 1515 1517 1518 1519 1519 1520 1520 1520 1519 1519 1519 1518 1518 1518
1555 1556 1554 1553 1549 1548 1552 1558 1552 1548 1543 1537 1529 1522 1516 1511 1508 1505 1503 1501 1500 1499 1499 1499 1500 1501 1502 1503 1504 1506 1508 1509 1511 1513 1514 1515 1517 1518 1518 1519 1519 1519 1519 1519 1519 1518 1517 1516 1516